Waarnemingen

Advertentie
Mijn weer
Tännäs, Zweden (2308): temperatuur & dauwpunt: 16.08.2018 01:00:00 - 22.08.2018 01:00:00 (CEST)Tännäs, Zweden (2308): windsnelheid & windstoten: 16.08.2018 01:00:00 - 22.08.2018 01:00:00 (CEST)Tännäs, Zweden (2308): windrichting: 16.08.2018 01:00:00 - 22.08.2018 01:00:00 (CEST)Tännäs, Zweden (2308): luchtdruk: 16.08.2018 01:00:00 - 22.08.2018 01:00:00 (CEST)Tännäs, Zweden (2308): zicht: 16.08.2018 01:00:00 - 22.08.2018 01:00:00 (CEST)Tännäs, Zweden (2308): neerslag: 16.08.2018 01:00:00 - 22.08.2018 01:00:00 (CEST)
Datum & Tijd tt [°C] td [°C] ff [km/u] ff [kn] fx [km/u] fx [kn] dd ppp [hPa] vv [km] rr [mm]
22.08.2018 01:00:00 4,1 2,6 2 1 12 6 ONO 1019,1 50 0,0
22.08.2018 00:00:00 3,9 2,3 1 1 10 5 NNO 1019,9 50 0,0
21.08.2018 23:00:00 4,1 2,5 2 1 6 4 O 1020,3 50 0,0
21.08.2018 22:00:00 4,1 2,3 2 1 4 2 NO 1020,2 50 0,0
21.08.2018 21:00:00 5,1 2,5 2 1 4 2 N 1020,0 50 0,0
21.08.2018 20:00:00 7,9 3,9 1 1 11 6 OZO 1019,1 50 0,0
21.08.2018 19:00:00 9,6 3,3 3 2 11 6 W 1018,5 50 0,0
21.08.2018 18:00:00 10,8 3,3 5 3 19 10 WZW 1018,3 45 0,0
21.08.2018 17:00:00 12,0 3,2 3 2 26 14 ZW 1018,2 43 0,0
21.08.2018 16:00:00 10,1 3,8 7 4 29 16 W 1018,9 50 0,0
21.08.2018 15:00:00 12,0 3,2 9 5 28 15 WNW 1017,9 29 0,0
21.08.2018 14:00:00 11,0 4,2 12 7 30 16 WNW 1018,4 38 0,0
21.08.2018 13:00:00 10,8 3,8 11 6 30 16 W 1018,3 47 0,0
21.08.2018 12:00:00 10,3 4,0 12 6 32 18 W 1018,3 38 0,0
21.08.2018 11:00:00 9,4 3,4 9 5 30 16 WNW 1018,1 46 0,0
21.08.2018 10:00:00 7,9 3,0 10 5 26 14 WNW 1018,3 48 0,0
21.08.2018 09:00:00 7,4 2,1 7 4 28 15 W 1017,9 48 0,0
21.08.2018 08:00:00 5,9 2,2 5 3 23 12 W 1017,6 50 0,0
21.08.2018 07:00:00 5,2 2,5 4 2 18 10 WNW 1017,6 50 0,0
21.08.2018 06:00:00 5,1 2,5 8 4 31 17 W 1017,3 50 0,0
21.08.2018 05:00:00 4,5 2,2 8 5 28 15 WNW 1016,8 50 0,0
21.08.2018 04:00:00 3,4 1,3 4 2 20 11 WNW 1016,8 50 0,0
21.08.2018 03:00:00 4,8 2,5 4 2 23 12 WNW 1016,5 22 0,1
21.08.2018 02:00:00 5,6 2,9 4 2 19 11 WNW 1016,0 38 0,0
21.08.2018 01:00:00 5,9 3,2 6 3 21 11 WNW 1015,4 50 0,0
21.08.2018 00:00:00 5,0 3,3 3 2 16 8 WNW 1015,1 50 0,0
20.08.2018 23:00:00 5,1 3,0 4 2 19 11 NW 1014,6 50 0,0
20.08.2018 22:00:00 6,4 4,2 3 2 16 9 WNW 1013,7 50 0,0
20.08.2018 21:00:00 6,3 4,0 3 1 22 12 W 1013,3 50 0,0
20.08.2018 20:00:00 7,5 3,9 7 4 24 13 WNW 1012,8 50 0,0
20.08.2018 19:00:00 8,4 4,2 6 4 20 11 W 1012,0 50 0,0
20.08.2018 18:00:00 8,7 3,9 5 3 25 13 W 1011,8 50 0,0
20.08.2018 17:00:00 9,9 4,1 7 4 29 16 W 1011,1 50 0,0
20.08.2018 16:00:00 11,1 4,3 7 4 21 11 W 1010,4 44 0,0
20.08.2018 15:00:00 11,1 4,8 4 2 20 11 W 1010,2 44 0,0
20.08.2018 14:00:00 12,0 4,7 9 5 23 13 W 1009,8 50 0,0
20.08.2018 13:00:00 10,3 3,6 4 2 15 8 WZW 1010,4 43 0,0
20.08.2018 12:00:00 9,6 3,6 7 4 25 14 W 1010,7 45 0,0
20.08.2018 11:00:00 8,6 3,4 5 3 25 13 W 1011,3 50 0,0
20.08.2018 10:00:00 8,3 3,1 8 4 24 13 WNW 1011,1 50 0,0
20.08.2018 09:00:00 7,6 2,9 5 3 16 9 W 1011,0 50 0,0
20.08.2018 08:00:00 6,0 4,3 1 1 15 8 OZO 1011,5 50 0,0
20.08.2018 07:00:00 4,0 3,3 2 1 5 3 ZO 1012,3 50 0,0
20.08.2018 06:00:00 3,9 2,9 3 2 11 6 N 1012,5 50 0,0
20.08.2018 05:00:00 3,7 3,0 1 1 4 2 N 1012,7 50 0,0
20.08.2018 04:00:00 3,8 2,8 1 1 5 3 NNW 1012,7 50 0,0
20.08.2018 03:00:00 4,3 3,0 1 1 15 8 NNW 1012,5 50 0,0
20.08.2018 02:00:00 4,0 2,8 1 1 9 5 N 1012,6 50 0,0
20.08.2018 01:00:00 3,6 2,4 1 1 6 3 NNW 1012,7 50 0,0
20.08.2018 00:00:00 4,9 3,2 2 1 5 3 N 1012,4 50 0,0
19.08.2018 23:00:00 5,5 3,5 2 1 10 5 ONO 1012,2 50 0,0
19.08.2018 22:00:00 6,4 3,7 4 2 15 8 WNW 1011,8 50 0,0
19.08.2018 21:00:00 7,3 4,4 3 2 11 6 W 1011,4 50 0,0
19.08.2018 20:00:00 9,7 5,1 3 2 19 10 ZZW 1010,4 50 0,0
19.08.2018 19:00:00 11,9 5,5 4 2 16 8 WZW 1009,4 50 0,0
19.08.2018 18:00:00 13,6 4,7 6 3 19 10 W 1008,5 50 0,0
19.08.2018 17:00:00 13,3 3,7 7 4 27 14 WNW 1008,6 50 0,0
19.08.2018 16:00:00 15,6 4,3 10 5 26 14 W 1007,8 34 0,0
19.08.2018 15:00:00 16,1 2,5 9 5 23 13 W 1007,6 49 0,0
19.08.2018 14:00:00 13,6 2,5 9 5 32 17 WNW 1008,2 50 0,0
19.08.2018 13:00:00 15,7 2,8 10 5 28 15 W 1007,2 36 0,0
19.08.2018 12:00:00 13,3 4,7 8 4 27 15 W 1007,7 35 0,0
19.08.2018 11:00:00 11,4 4,8 7 4 25 14 W 1008,1 50 0,0
19.08.2018 10:00:00 10,9 5,0 5 3 19 10 W 1007,8 50 0,0
19.08.2018 09:00:00 10,2 5,4 4 2 8 4 NNW 1007,4 50 0,0
19.08.2018 08:00:00 7,6 5,9 2 1 6 3 ZZO 1007,7 50 0,0
19.08.2018 07:00:00 7,0 5,6 3 1 5 3 N 1007,2 42 0,0
19.08.2018 06:00:00 6,9 5,2 3 2 9 5 NNW 1006,7 50 0,0
19.08.2018 05:00:00 8,0 4,2 4 2 19 11 NW 1005,5 50 0,0
19.08.2018 04:00:00 6,8 4,3 4 2 16 9 ZW 1004,7 50 0,0
19.08.2018 03:00:00 7,6 4,5 5 3 20 11 ZZW 1004,1 50 0,0
19.08.2018 02:00:00 7,4 4,5 4 2 20 11 ZW 1003,6 50 0,0
19.08.2018 01:00:00 8,4 4,8 8 4 29 15 ZW 1002,8 50 0,0
19.08.2018 00:00:00 8,8 5,2 6 3 25 13 ZW 1002,2 50 0,0
18.08.2018 23:00:00 9,4 5,4 5 3 26 14 ZW 1001,6 50 0,0
18.08.2018 22:00:00 9,6 5,6 6 3 30 16 ZW 1000,9 50 0,0
18.08.2018 21:00:00 10,3 6,6 6 3 30 16 ZW 999,9 50 0,0
18.08.2018 20:00:00 11,1 7,8 6 4 29 16 WZW 999,4 50 0,0
18.08.2018 19:00:00 11,7 8,9 7 4 30 16 ZW 999,2 50 0,0
18.08.2018 18:00:00 12,0 11,7 6 4 24 13 ZW 999,1 29 0,6
18.08.2018 17:00:00 10,8 10,5 6 3 22 12 ZW 1000,5 15 1,5
18.08.2018 16:00:00 10,6 10,3 5 3 29 16 ZZW 1001,8 6 1,7
18.08.2018 15:00:00 10,7 10,2 6 3 29 15 ZZW 1002,7 12 0,7
18.08.2018 14:00:00 10,7 9,8 7 4 35 19 ZZW 1004,0 12 0,2
18.08.2018 13:00:00 11,8 8,3 8 4 37 20 ZW 1004,0 50 0,0
18.08.2018 12:00:00 11,1 7,2 9 5 41 22 ZW 1004,7 50 0,0
18.08.2018 11:00:00 10,6 6,5 12 6 42 23 ZZW 1005,0 49 0,0
18.08.2018 10:00:00 10,8 6,5 9 5 29 16 ZZW 1004,9 45 0,0
18.08.2018 09:00:00 10,0 7,1 7 4 26 14 ZZW 1006,0 50 0,0
18.08.2018 08:00:00 8,1 6,7 4 2 18 10 ZZW 1007,8 50 0,0
18.08.2018 07:00:00 7,5 6,4 5 3 21 12 ZO 1008,6 50 0,0
18.08.2018 06:00:00 7,1 5,4 4 2 23 12 Z 1009,0 50 0,0
18.08.2018 05:00:00 7,0 4,7 3 2 15 8 ZZW 1009,5 50 0,0
18.08.2018 04:00:00 5,5 4,8 2 1 10 5 ZO 1010,4 50 0,0
18.08.2018 03:00:00 6,4 4,7 3 2 12 7 ZW 1010,2 50 0,0
18.08.2018 02:00:00 6,9 5,2 3 1 10 5 Z 1010,1 50 0,0
18.08.2018 01:00:00 6,6 5,7 5 3 13 7 Z 1010,3 50 0,0
18.08.2018 00:00:00 7,3 6,4 3 2 14 8 ZW 1009,7 50 0,0
17.08.2018 23:00:00 7,5 6,4 6 3 16 8 ZZW 1009,5 50 0,0
17.08.2018 22:00:00 8,3 6,6 4 2 17 9 ZZW 1009,0 50 0,0
17.08.2018 21:00:00 8,8 6,8 4 2 21 11 ZZW 1008,5 50 0,0
17.08.2018 20:00:00 9,9 7,3 4 2 17 9 ZW 1007,8 50 0,0
17.08.2018 19:00:00 9,9 8,8 4 2 24 13 ZZW 1007,9 50 0,1
17.08.2018 18:00:00 9,4 7,5 12 7 36 19 W 1009,1 22 2,1
17.08.2018 17:00:00 16,8 7,4 7 4 32 17 ZW 1005,5 37 0,0
17.08.2018 16:00:00 16,8 7,2 9 5 40 22 ZW 1004,9 47 0,0
17.08.2018 15:00:00 18,1 7,5 9 5 35 19 ZZW 1004,5 38 0,0
17.08.2018 14:00:00 15,1 6,6 9 5 36 19 ZW 1005,6 50 0,0
17.08.2018 13:00:00 16,7 8,9 8 4 34 18 ZW 1004,8 39 0,0
17.08.2018 12:00:00 15,2 9,5 9 5 35 19 ZZW 1005,3 39 0,0
17.08.2018 11:00:00 14,1 9,1 8 5 37 20 ZW 1005,1 30 0,0
17.08.2018 10:00:00 12,4 11,5 6 4 29 15 ZZW 1005,8 50 0,3
17.08.2018 09:00:00 11,1 10,0 4 2 31 17 ZW 1006,4 12 0,0
17.08.2018 08:00:00 11,6 10,8 5 3 24 13 ZW 1006,0 49 0,0
17.08.2018 07:00:00 9,9 9,6 5 3 16 8 Z 1005,9 50 0,0
17.08.2018 06:00:00 10,1 9,9 4 2 12 6 ZO 1005,5 50 0,0
17.08.2018 05:00:00 10,5 10,3 3 2 12 7 Z 1005,2 50 0,0
17.08.2018 04:00:00 10,6 10,4 2 1 9 5 ONO 1004,6 50 0,1
17.08.2018 03:00:00 11,1 10,9 3 1 11 6 ZZW 1004,5 15 0,7
17.08.2018 02:00:00 11,5 11,3 3 2 34 19 ZZW 1003,8 9 3,2
17.08.2018 01:00:00 13,1 12,5 12 6 36 20 Z 1002,8 11 0,1
17.08.2018 00:00:00 13,2 12,4 12 6 50 27 Z 1003,4 10 0,1
16.08.2018 23:00:00 13,1 12,5 13 7 45 24 Z 1003,5 9 0,0
16.08.2018 22:00:00 13,2 12,3 13 7 47 25 ZZW 1004,0 13 0,0
16.08.2018 21:00:00 13,6 12,0 11 6 42 23 Z 1004,3 20 0,0
16.08.2018 20:00:00 14,3 12,0 10 6 45 25 Z 1004,3 43 0,0
16.08.2018 19:00:00 14,6 11,7 8 4 46 25 ZZW 1004,8 50 0,0
16.08.2018 18:00:00 15,0 12,3 9 5 36 20 ZZW 1005,0 50 0,0
16.08.2018 17:00:00 14,8 12,3 9 5 37 20 ZZW 1005,6 50 0,0
16.08.2018 16:00:00 15,6 12,5 7 4 55 30 ZW 1005,5 50 0,0
16.08.2018 15:00:00 15,7 12,6 13 7 46 25 ZZW 1005,5 50 0,0
16.08.2018 14:00:00 14,7 12,6 10 5 42 23 ZZW 1006,2 37 0,0
16.08.2018 13:00:00 14,0 12,0 10 5 36 19 Z 1006,4 30 0,0
16.08.2018 12:00:00 14,6 11,0 8 5 32 18 ZZW 1006,5 50 0,0
16.08.2018 11:00:00 15,7 11,3 6 4 32 17 ZW 1006,7 47 0,0
16.08.2018 10:00:00 15,0 12,7 8 4 29 16 ZZW 1006,5 50 0,0
16.08.2018 09:00:00 12,7 11,8 7 4 30 16 ZZW 1007,4 47 0,0
16.08.2018 08:00:00 12,1 11,5 5 3 21 12 ZZO 1007,7 18 0,0
16.08.2018 07:00:00 12,0 11,2 5 3 25 13 Z 1007,9 23 0,0
16.08.2018 06:00:00 11,8 10,9 5 3 21 11 Z 1008,1 42 0,0
16.08.2018 05:00:00 11,6 10,7 8 4 21 11 Z 1008,5 50 0,0
16.08.2018 04:00:00 11,3 10,4 5 3 23 12 ZZO 1008,6 50 0,2
16.08.2018 03:00:00 11,5 9,9 6 3 18 10 Z 1008,7 46 0,0
16.08.2018 02:00:00 11,4 9,3 8 5 26 14 Z 1009,3 50 0,0
16.08.2018 01:00:00 11,3 8,9 3 2 16 9 Z 1009,8 50 0,0

tt = temperatuur
td = dauwpunt
ff = windsnelheid
fx = windstoten
dd = windrichting
ppp = luchtdruk
vv = zicht
rr = neerslag

Weerstations in de omgeving